Regional Weather Roundup
Issued by NWS

Home | Current Version | Previous Version | Graphics & Text | Print | Product List | Glossary On
Versions: 1 2 3 4 5 6 7 8 9 10 11 12 13 14 15 16 17 18 19 20 21 22 23 24 25 26 27 28 29 30 31 32 33 34 35 36 37 38 39 40 41 42 43 44 45 46 47 48 49 50
000
ASUS45 KSLC 040510
RWRUT

UTAH REGIONAL WEATHER ROUNDUP
NATIONAL WEATHER SERVICE SALT LAKE CITY UT
1000 PM MST SAT DEC 03 2016

UTZ001>011-023>025-040600-

NORTHERN UTAH

CITY           SKY/WX    TMP DP  RH WIND       PRES   REMARKS
BRIGHAM CITY     N/A     31  25  78 CALM      30.27S
HILL AFB       MOCLDY    28  18  66 SE5       30.25F WCI  22
LOGAN          CLOUDY   N/A N/A N/A NW6       30.26S
OGDEN          PTCLDY    28  20  71 S7        30.25F WCI  21
SALT LAKE CITY MOCLDY    32  21  64 SE12      30.26F WCI  23
TOOELE VALLEY  CLEAR     28  21  74 S12       30.27S WCI  18
WENDOVER       CLEAR     28  14  54 N3        30.26F
HEBER CITY     PTCLDY    14  10  85 CALM      30.25R
WEST JORDAN    PTCLDY    27  22  84 S5        30.28S WCI  21

$$

UTZ011>015-024>027-040600-

CENTRAL/NORTHEAST UTAH

CITY           SKY/WX    TMP DP  RH WIND       PRES   REMARKS
PROVO AIRPORT  PTCLDY    24  20  84 S3        30.31R
MOAB/CANYONLAN CLEAR     22  11  62 CALM      30.21R
DELTA          CLEAR     21  18  86 NE7       30.29R WCI  13
PRICE          CLEAR     28  14  55 NW8       30.17S WCI  20
ROOSEVELT      CLOUDY    18  12  79 SW3       30.24R
VERNAL         CLOUDY    21  12  68 NW5       30.22R WCI  15

$$

UTZ013>016-019>022-027-040600-

SOUTHERN UTAH

CITY           SKY/WX    TMP DP  RH WIND       PRES   REMARKS
BRYCE CANYON   NOT AVBL
CEDAR CITY     CLEAR     19  11  70 N3        30.22R
MILFORD        CLEAR     23  13  65 CALM      30.26R
ST GEORGE      PTCLDY    37  14  38 S3        30.21R
HANKSVILLE     CLEAR     25  12  58 CALM      30.24R
BLANDING       CLEAR     25  11  55 W5        30.21S WCI  19

$$

REGIONAL REPORTS     COLORADO/ARIZONA

CITY           SKY/WX    TMP DP  RH WIND       PRES   REMARKS
CRAIG, CO      CLOUDY    22  16  78 SE3       30.19R
GRAND JUNCTION CLEAR     22  17  81 SE8       30.21R WCI  12
RIFLE, CO      CLOUDY    20  13  74 CALM      30.21R
MONTROSE, CO   CLOUDY    21  13  71 SE10      30.24R WCI  10
CORTEZ, CO     CLOUDY    23  13  65 E5        30.13S WCI  17
COLORADO CITY    N/A     21  18  86 CALM      30.21S
PAGE, AZ       CLEAR     33  10  38 W3        30.18R HAZE
GRAND CANYON   PTCLDY    14   8  77 CALM      30.15F
KINGMAN, AZ    CLEAR     40   8  26 E9        30.14R WCI  34
FLAGSTAFF, AZ  CLEAR     32   5  32 NE26G35   30.09R WCI  18

$$

REGIONAL REPORTS    NEVADA/IDAHO/WYOMING

CITY           SKY/WX    TMP DP  RH WIND       PRES   REMARKS
LAS VEGAS, NV  CLEAR     49  11  21 CALM      30.17F
ELY, NY        CLEAR     17  11  77 S12       30.25F WCI   4
ELKO, NV       CLEAR     22  16  78 CALM      30.26S
POCATELLO, ID  CLOUDY    36  25  64 S14       30.19F WCI  27
BURLEY, ID     PTCLDY    33  24  69 SW13      30.19F WCI  24
FORT BRIDGER,  CLOUDY    26  18  73 W16       30.19S WCI  13
EVANSTON, WY   CLOUDY    22  13  68 SW12      30.17F WCI  10
ROCK SPRINGS,  CLOUDY    21  16  81 W16       30.12F WCI   7

$$



USA.gov is the U.S. government's official web portal to all federal, state and local government web resources and services.